[[{"header":{"parameterUnit":"m.s-1","parameterCategory":1,"la1":30.2991,"la2":30.254,"lo1":-89.0895,"lo2":-89.0444,"dy":0.0017,"dx":0.0017,"nx":28,"ny":28,"refTime":"2024-06-26T09:00:00:Z","depth":0,"parameterNumber":2,"parameterNumberName":"U-component_of_WINDS"},"data":[0,0,0,0,0,0,0,0,0,0,0,0,0,0,0,0,0,0,0,0,0,0,0,0,0,0,0,0,0,0,0,0,0,0,0,0,0,0,0,0,0,0,0,0,0,0,0,0,0,0,0,0,0,0,0,0,0,0,3.0598,3.0599,0,3.0774,3.0776,3.0778,3.0772,3.0769,3.0767,3.0764,3.0946,3.0953,3.096,0,0,0,0,0,0,0,0,0,0,0,0,0,3.0259,3.0265,3.0597,3.06,3.0602,3.0773,3.0776,3.0778,3.0772,3.0769,3.0766,3.0763,3.0944,3.0952,3.0961,0,0,0,0,0,0,0,0,0,0,0,0,0,3.0417,3.0267,3.0597,3.0619,3.0623,3.0773,3.0776,3.0779,3.0773,3.0769,3.0765,3.0762,3.0941,3.0951,3.0962,3.1101,0,0,3.0994,3.0999,0,0,0,0,0,0,0,0,3.0408,3.043,3.0614,3.0618,3.0623,3.0747,3.0723,3.0887,3.0774,3.0716,3.0764,3.076,3.0883,3.0898,3.0939,3.1109,3.1117,3.0995,3.1002,3.1006,3.1009,0,0,0,0,0,0,0,3.0397,3.0422,3.0667,3.0617,3.0622,3.0622,3.064,3.0754,3.0818,3.0721,3.0721,3.0742,3.0884,3.0929,3.0943,3.112,3.0995,3.1004,3.1011,3.1015,3.1416,3.142,0,0,0,0,0,0,3.0381,3.0413,3.0662,3.0672,3.0504,3.0631,3.0651,3.0711,3.0817,3.0829,3.0745,3.0741,3.0912,3.0931,3.095,3.1121,3.1006,3.1016,3.1022,3.1412,3.1417,3.1422,0,0,0,0,0,0,3.0374,3.0404,3.0654,3.0543,3.0575,3.064,3.0707,3.0716,3.076,3.0835,3.0846,3.0778,3.091,3.0935,3.1064,3.1127,3.1021,3.1031,3.1407,3.1414,3.1419,3.1463,0,0,0,0,0,0,3.0364,3.0401,3.0454,3.0544,3.0581,3.0765,3.0711,3.0722,3.0779,3.0775,3.0869,3.0881,3.0909,3.1048,3.1075,3.114,3.1039,3.1402,3.141,3.1417,3.1456,3.147,3.1482,0,0,0,0,0,3.0352,3.0459,3.0456,3.0486,3.0648,3.0768,3.0789,3.0819,3.0784,3.0838,3.0886,3.0878,3.1116,3.1061,3.1091,3.116,3.1398,3.1408,3.1417,3.1451,3.1468,3.1482,0,0,0,0,0,0,3.0373,3.0471,3.0469,3.0608,3.068,3.0767,3.0836,3.0836,3.092,3.0913,3.0948,3.0969,3.1099,3.1143,3.108,3.1302,3.1253,3.1269,3.1268,3.1285,3.1297,3.1284,3.1048,0,0,0,0,0,3.0394,3.0483,3.0564,3.0678,3.0715,3.0769,3.0823,3.084,3.0916,3.0947,3.1004,3.1079,3.1171,3.1231,3.1319,3.1464,3.1485,3.1526,3.1539,3.1549,3.1562,3.1644,3.1664,3.1453,3.1453,3.1453,0,0,3.0437,3.0502,3.0556,3.0684,3.0742,3.0835,3.0795,3.0894,3.0963,3.0962,3.1087,3.1133,3.1219,3.1357,3.142,3.1397,3.1626,3.1562,3.1569,3.1577,3.1656,3.1676,3.1693,3.146,3.1459,3.1458,0,0,3.0564,3.0621,3.0724,3.0783,3.0872,3.0908,3.0933,3.1021,3.1051,3.1178,3.1179,3.1263,3.142,3.1482,3.1534,3.1688,3.1684,3.1716,3.1783,3.1862,3.1879,3.1893,3.1949,3.1968,3.1729,3.1729,3.173,0,3.0606,3.0745,3.0776,3.0876,3.0934,3.0938,3.1043,3.1099,3.1212,3.1252,3.1225,3.1424,3.1482,3.1636,3.1673,3.1715,3.1746,3.1705,3.1874,3.1889,3.1903,3.1957,3.1977,3.1733,3.1732,3.1732,3.1732,0,3.0794,3.089,3.0963,3.1072,3.1138,3.124,3.1288,3.1351,3.1364,3.1403,3.1533,3.1604,3.1708,3.1746,3.1759,3.1902,3.1885,3.1866,3.1816,3.1926,3.1977,3.1997,3.1737,3.1736,3.1735,3.1734,0,0,3.0935,3.1063,3.1089,3.1139,3.1239,3.1315,3.1419,3.152,3.1574,3.1653,3.1741,3.1876,3.186,3.1919,3.1939,3.2009,3.2128,3.1981,3.1984,3.2006,3.2291,3.2305,3.2328,3.2127,3.2131,3.2134,3.2284,0,3.1071,3.1254,3.1287,3.1447,3.1537,3.1545,3.1635,3.1707,3.1748,3.1831,3.1877,3.1972,3.1942,3.1979,3.2048,3.2098,3.2185,3.2088,3.221,3.2214,3.2187,3.2354,3.2368,3.2506,3.2304,3.2307,3.231,0,3.1254,3.1339,3.1507,3.1597,3.1637,3.1717,3.1814,3.1894,3.1977,3.2002,3.207,3.2083,3.2193,3.214,3.2292,3.2225,3.2278,3.2311,3.2317,3.2328,3.2267,3.237,3.2551,3.2571,3.2341,3.2339,3.2337,0,3.134,3.1496,3.1618,3.1661,3.1769,3.1826,3.1874,3.1953,3.2013,3.2099,3.2138,3.2236,3.2289,3.2365,3.2405,3.2363,3.2555,3.2505,3.258,3.2579,3.2618,3.2615,3.2809,3.2653,3.2653,3.2653,3.2652,0,3.1489,3.1592,3.1658,3.1733,3.185,3.1888,3.2003,3.205,3.2121,3.2206,3.2219,3.2299,3.2348,3.2435,3.2468,3.259,3.2614,3.2638,3.2645,3.2636,3.2633,3.267,3.2661,3.2658,3.2657,3.2656,3.2655,0,3.1603,3.1652,3.1785,3.1878,3.1903,3.1985,3.2065,3.2139,3.2181,3.2288,3.2316,3.2382,3.2486,3.2535,3.2663,3.2685,3.2824,3.2825,3.2795,3.2798,3.287,3.2862,3.3094,3.3126,3.2949,3.2951,3.2952,0,3.1694,3.1774,3.1875,3.1933,3.1983,3.2076,3.2137,3.2179,3.2243,3.2345,3.2407,3.2512,3.2598,3.2764,3.2824,3.2923,3.2927,3.3001,3.2941,3.2931,3.2928,3.2922,3.2931,3.3011,3.3013,3.3014,3.3016,0,3.185,3.1871,3.1959,3.2057,3.2131,3.221,3.2287,3.2334,3.2389,3.2461,3.2567,3.2634,3.2766,3.287,3.2974,3.3025,3.303,3.3034,3.3057,3.3048,3.3028,3.304,3.2824,3.3028,3.3027,3.3026,3.3025,3.3025,3.1956,3.2028,3.2111,3.2209,3.2273,3.2346,3.242,3.2472,3.2562,3.2672,3.2692,3.2806,3.289,3.303,3.3085,3.3175,3.3158,3.319,3.3199,3.3206,3.321,3.3014,3.3195,3.3194,3.3194,3.3194,3.3194,0,3.2113,3.2167,3.2258,3.2366,3.2445,3.2444,3.253,3.2596,3.2696,3.2773,3.2858,3.2982,3.3084,3.3154,3.3258,3.3317,3.3322,3.3343,3.3338,3.335,3.3219,3.3189,3.3337,3.3337,3.3337,3.3337,3.3337,3.3337,3.2203,3.2325,3.2357,3.2511,3.2565,3.2677,3.2726,3.2795,3.2857,3.2995,3.308,3.3124,3.32,3.331,3.3404,3.3422,3.346,3.3481,3.3498,3.3374,3.3359,3.3345,3.3317,3.3489,3.3489,3.3622,3.3623,3.3624]},{"header":{"parameterUnit":"m.s-1","parameterCategory":1,"la1":30.2991,"la2":30.254,"lo1":-89.0895,"lo2":-89.0444,"dy":0.0017,"dx":0.0017,"nx":28,"ny":28,"refTime":"2024-06-26T09:00:00:Z","depth":0,"parameterNumber":3,"parameterNumberName":"V-component_of_WINDS"},"data":[0,0,0,0,0,0,0,0,0,0,0,0,0,0,0,0,0,0,0,0,0,0,0,0,0,0,0,0,0,0,0,0,0,0,0,0,0,0,0,0,0,0,0,0,0,0,0,0,0,0,0,0,0,0,0,0,0,0,1.1342,1.1344,0,1.149,1.1491,1.1493,1.1502,1.15,1.1498,1.1497,1.1656,1.1662,1.1668,0,0,0,0,0,0,0,0,0,0,0,0,0,1.1077,1.1082,1.1342,1.1344,1.1346,1.1489,1.1491,1.1493,1.1502,1.15,1.1498,1.1496,1.1654,1.1661,1.1668,0,0,0,0,0,0,0,0,0,0,0,0,0,1.1205,1.1083,1.1342,1.1367,1.1371,1.1489,1.1491,1.1494,1.1503,1.15,1.1497,1.1495,1.1652,1.1661,1.1669,1.1774,0,0,1.1696,1.17,0,0,0,0,0,0,0,0,1.1198,1.1215,1.1362,1.1366,1.137,1.1474,1.1456,1.1588,1.1503,1.1453,1.1497,1.1494,1.1598,1.1611,1.1645,1.1782,1.1789,1.1697,1.1702,1.1706,1.1708,0,0,0,0,0,0,0,1.1189,1.1209,1.1401,1.1364,1.1369,1.1374,1.1389,1.1481,1.1539,1.1457,1.1458,1.1475,1.16,1.1636,1.1649,1.1791,1.1697,1.1704,1.171,1.1713,1.2023,1.2026,0,0,0,0,0,0,1.1174,1.1201,1.1396,1.1405,1.1276,1.1381,1.1398,1.1444,1.1537,1.1549,1.1477,1.1475,1.1623,1.1639,1.1654,1.1785,1.1706,1.1714,1.1719,1.202,1.2024,1.2027,0,0,0,0,0,0,1.1168,1.1191,1.139,1.1304,1.1329,1.1388,1.1439,1.1448,1.1484,1.1552,1.1563,1.1503,1.1621,1.1642,1.1744,1.1791,1.1718,1.1726,1.2017,1.2022,1.2026,1.2046,0,0,0,0,0,0,1.1161,1.1189,1.1228,1.1304,1.1334,1.1475,1.1442,1.1453,1.1498,1.1497,1.158,1.1591,1.1621,1.1731,1.1753,1.1801,1.1733,1.2013,1.2019,1.2024,1.2042,1.2051,1.2058,0,0,0,0,0,1.1151,1.1229,1.123,1.1253,1.1383,1.1478,1.1495,1.1525,1.1502,1.1543,1.1586,1.1588,1.1781,1.1741,1.1766,1.1818,1.201,1.2017,1.2024,1.2038,1.2049,1.2058,0,0,0,0,0,0,1.116,1.124,1.1241,1.1346,1.1404,1.1479,1.1531,1.1536,1.1605,1.1601,1.1638,1.1657,1.1759,1.1798,1.1752,1.1925,1.1894,1.1906,1.1896,1.1907,1.1915,1.1905,1.174,0,0,0,0,0,1.1173,1.1241,1.1308,1.1394,1.1423,1.1472,1.1515,1.1533,1.1596,1.1622,1.1673,1.1738,1.1813,1.1862,1.1935,1.2047,1.2066,1.2095,1.2103,1.211,1.212,1.2184,1.2198,1.2049,1.2049,1.2049,0,0,1.1204,1.1255,1.1297,1.1398,1.1445,1.1517,1.1493,1.157,1.1625,1.1635,1.1734,1.1774,1.1848,1.1956,1.2006,1.1992,1.2165,1.2118,1.2123,1.213,1.2193,1.2207,1.2219,1.2054,1.2053,1.2052,0,0,1.1295,1.134,1.1417,1.1465,1.1536,1.1568,1.1586,1.166,1.1686,1.1785,1.1794,1.1861,1.1989,1.2042,1.2086,1.2196,1.2202,1.2219,1.2265,1.2327,1.2338,1.2349,1.2391,1.2405,1.2229,1.2229,1.2229,0,1.1324,1.143,1.1457,1.1534,1.1579,1.1588,1.1668,1.1714,1.1806,1.1839,1.1821,1.1982,1.2033,1.2153,1.218,1.2215,1.2239,1.2211,1.2334,1.2345,1.2355,1.2396,1.2411,1.2231,1.2231,1.2231,1.2231,0,1.1464,1.1537,1.1591,1.1677,1.1729,1.1807,1.1848,1.1897,1.191,1.1945,1.2047,1.2107,1.2193,1.2223,1.2238,1.2347,1.2336,1.2325,1.2295,1.2371,1.2409,1.2425,1.2234,1.2233,1.2232,1.2232,0,0,1.1567,1.1665,1.1685,1.1725,1.1804,1.1863,1.1942,1.2023,1.2065,1.2129,1.2198,1.2306,1.2297,1.2346,1.2367,1.2421,1.2507,1.2405,1.2407,1.2424,1.2634,1.2643,1.266,1.251,1.2513,1.2516,1.2628,0,1.1669,1.1807,1.1833,1.1955,1.2024,1.2033,1.2103,1.216,1.2195,1.2261,1.23,1.2376,1.2357,1.2387,1.2441,1.2485,1.2551,1.2477,1.2579,1.2582,1.2562,1.268,1.269,1.2793,1.2643,1.2646,1.2648,0,1.1806,1.187,1.1998,1.2068,1.2098,1.216,1.2237,1.2299,1.2365,1.2386,1.2441,1.2455,1.2541,1.2504,1.2625,1.2574,1.2617,1.2645,1.265,1.2663,1.2621,1.2698,1.2826,1.2843,1.2671,1.2669,1.2668,0,1.1871,1.1989,1.2081,1.2115,1.2198,1.2242,1.2279,1.2342,1.2389,1.2457,1.2489,1.2567,1.261,1.2672,1.2708,1.2677,1.2827,1.2792,1.285,1.2849,1.2883,1.2881,1.3022,1.2906,1.2906,1.2905,1.2905,0,1.1983,1.2062,1.2111,1.2168,1.2257,1.2287,1.2376,1.2413,1.2469,1.2536,1.2549,1.2611,1.2654,1.2724,1.2753,1.285,1.2869,1.2891,1.2898,1.2891,1.2889,1.2922,1.2917,1.291,1.2909,1.2908,1.2907,0,1.2072,1.2108,1.2209,1.2279,1.2298,1.2361,1.2422,1.248,1.2513,1.2597,1.2619,1.2672,1.2755,1.2796,1.29,1.292,1.303,1.3031,1.3007,1.301,1.3066,1.3061,1.3236,1.3262,1.3126,1.3127,1.3128,0,1.2142,1.2202,1.2278,1.2322,1.2359,1.243,1.2478,1.251,1.256,1.264,1.2688,1.277,1.2838,1.297,1.3021,1.3101,1.3106,1.3162,1.3119,1.311,1.311,1.3107,1.3115,1.3171,1.3172,1.3173,1.3174,0,1.2264,1.2278,1.2345,1.2418,1.2474,1.2534,1.2593,1.2629,1.2671,1.2727,1.281,1.2862,1.2967,1.305,1.3133,1.3175,1.3183,1.3186,1.3204,1.3199,1.3183,1.3195,1.303,1.3183,1.3182,1.3181,1.3181,1.3181,1.2347,1.2401,1.2463,1.2537,1.2584,1.2639,1.2696,1.2736,1.2805,1.2891,1.2906,1.2995,1.3062,1.3174,1.3218,1.329,1.3279,1.3304,1.3311,1.3317,1.3321,1.3169,1.3305,1.3305,1.3305,1.3305,1.3304,0,1.2471,1.2511,1.2578,1.266,1.2719,1.2717,1.2782,1.2833,1.291,1.2969,1.3035,1.3132,1.3212,1.3268,1.3351,1.3398,1.3404,1.3419,1.3417,1.3427,1.3326,1.3303,1.3413,1.3413,1.3413,1.3413,1.3413,1.3413,1.2543,1.2635,1.2657,1.2774,1.2814,1.2899,1.2937,1.2989,1.3037,1.3143,1.3209,1.3243,1.3303,1.3389,1.3464,1.3479,1.351,1.3525,1.3541,1.3445,1.3434,1.3423,1.3402,1.3531,1.3531,1.3637,1.3638,1.3638]}]]